FW6320 Weather Reports


Display with metric or nautical units.
time (UTC)temp
F
wind
direction
speed
MPH
gust
MPH
rain 1hr
in
rain 24hr
in
rain mn
in
humidity
%
barometer
mb
20260901234024 96 147 6.0 13.0 0.00 0.00 0.00 43 1013.4
20260901233530 96 139 6.0 13.0 0.00 0.00 0.00 42 1013.5
20260901233048 97 128 6.0 13.0 0.00 0.00 0.00 42 1013.5
20260901232525 97 150 4.0 11.0 0.00 0.00 0.00 42 1013.4
20260901232024 97 133 5.0 11.0 0.00 0.00 0.00 41 1013.6
20260901231609 97 62 4.0 9.0 0.00 0.00 0.00 41 1013.5
20260901231021 97 101 4.0 10.0 0.00 0.00 0.00 42 1013.4
20260901230526 97 147 6.0 12.0 0.00 0.00 0.00 41 1013.5
20260901225524 97 137 5.0 11.0 0.00 0.00 0.00 42 1013.6
20260901225024 96 95 4.0 14.0 0.00 0.00 0.00 42 1013.6
20260901224548 97 103 4.0 14.0 0.00 0.00 0.00 42 1013.7
20260901224024 97 98 7.0 14.0 0.00 0.00 0.00 41 1013.7
20260901223524 97 107 6.0 13.0 0.00 0.00 0.00 42 1013.6
20260901223045 97 101 4.0 13.0 0.00 0.00 0.00 41 1013.7
20260901222525 98 154 5.0 13.0 0.00 0.00 0.00 41 1013.7
20260901222022 98 123 5.0 10.0 0.00 0.00 0.00 42 1013.7
20260901221608 98 121 5.0 10.0 0.00 0.00 0.00 42 1013.8
20260901221022 98 139 4.0 9.0 0.00 0.00 0.00 42 1013.8
20260901220524 98 143 3.0 9.0 0.00 0.00 0.00 42 1013.8
20260901220053 98 101 3.0 10.0 0.00 0.00 0.00 42 1013.8
20260901215518 97 146 6.0 11.0 0.00 0.00 0.00 41 1013.9
20260901215024 98 136 5.0 11.0 0.00 0.00 0.00 42 1014.0
20260901214540 98 91 6.0 13.0 0.00 0.00 0.00 43 1014.0
20260901214024 98 142 8.0 13.0 0.00 0.00 0.00 41 1014.1
20260901213525 98 77 6.0 13.0 0.00 0.00 0.00 42 1014.0
20260901213103 98 103 5.0 11.0 0.00 0.00 0.00 42 1014.0
20260901212523 98 175 3.0 11.0 0.00 0.00 0.00 43 1014.0
20260901212024 98 111 4.0 10.0 0.00 0.00 0.00 42 1013.9
20260901211542 98 155 5.0 11.0 0.00 0.00 0.00 41 1014.0
20260901211025 98 133 4.0 12.0 0.00 0.00 0.00 43 1014.2
20260901210530 98 51 3.0 12.0 0.00 0.00 0.00 43 1014.2
20260901210051 98 86 6.0 12.0 0.00 0.00 0.00 43 1014.3
20260901205525 98 107 5.0 11.0 0.00 0.00 0.00 43 1014.3
20260901205029 99 145 5.0 11.0 0.00 0.00 0.00 41 1014.3
20260901204601 99 160 1.0 11.0 0.00 0.00 0.00 41 1014.4
20260901204025 99 121 4.0 11.0 0.00 0.00 0.00 41 1014.5
20260901203526 99 185 5.0 12.0 0.00 0.00 0.00 41 1014.5
20260901203046 99 130 5.0 13.0 0.00 0.00 0.00 40 1014.6
20260901202523 99 186 3.0 13.0 0.00 0.00 0.00 42 1014.6
20260901202023 99 182 5.0 13.0 0.00 0.00 0.00 44 1014.7
20260901201542 99 0 4.0 11.0 0.00 0.00 0.00 42 1014.6
20260901201022 98 157 1.0 11.0 0.00 0.00 0.00 43 1014.9
20260901200521 98 126 3.0 11.0 0.00 0.00 0.00 42 1014.9
20260901200108 99 108 4.0 11.0 0.00 0.00 0.00 41 1015.0
20260901195524 98 192 3.0 12.0 0.00 0.00 0.00 44 1015.0
20260901195023 97 134 5.0 12.0 0.00 0.00 0.00 45 1015.0
20260901194604 96 0 1.0 10.0 0.00 0.00 0.00 46 1015.0
20260901194027 97 0 0.0 11.0 0.00 0.00 0.00 44 1015.2
20260901193525 97 82 3.0 11.0 0.00 0.00 0.00 44 1015.2
20260901193050 97 124 5.0 10.0 0.00 0.00 0.00 44 1015.3
20260901192526 97 98 5.0 10.0 0.00 0.00 0.00 45 1015.4
20260901192022 97 137 5.0 13.0 0.00 0.00 0.00 46 1015.4
20260901191621 97 100 5.0 13.0 0.00 0.00 0.00 45 1015.5
20260901191023 98 146 2.0 12.0 0.00 0.00 0.00 44 1015.4
20260901190524 98 116 2.0 10.0 0.00 0.00 0.00 45 1015.5
20260901190041 97 190 2.0 11.0 0.00 0.00 0.00 44 1015.7
20260901185523 97 198 4.0 12.0 0.00 0.00 0.00 45 1015.7
20260901185025 97 134 4.0 12.0 0.00 0.00 0.00 47 1015.8
20260901184547 97 117 4.0 12.0 0.00 0.00 0.00 45 1015.8
20260901184024 96 149 4.0 11.0 0.00 0.00 0.00 47 1016.0
20260901183523 95 112 2.0 11.0 0.00 0.00 0.00 47 1016.1
20260901183050 96 149 5.0 12.0 0.00 0.00 0.00 46 1016.2
20260901182524 97 145 7.0 12.0 0.00 0.00 0.00 46 1016.4
20260901182024 96 144 4.0 12.0 0.00 0.00 0.00 46 1016.4
20260901181550 96 117 6.0 12.0 0.00 0.00 0.00 46 1016.4
20260901181021 96 0 1.0 9.0 0.00 0.00 0.00 47 1016.4
20260901180523 96 190 5.0 11.0 0.00 0.00 0.00 47 1016.5
20260901180047 96 0 1.0 12.0 0.00 0.00 0.00 48 1016.6
20260901175524 96 139 4.0 12.0 0.00 0.00 0.00 47 1016.7
20260901175024 96 155 5.0 12.0 0.00 0.00 0.00 48 1016.7
20260901174545 95 142 2.0 7.0 0.00 0.00 0.00 49 1016.7
20260901174023 95 146 2.0 8.0 0.00 0.00 0.00 49 1016.8
20260901173522 95 174 4.0 9.0 0.00 0.00 0.00 51 1017.0
20260901173043 94 0 2.0 9.0 0.00 0.00 0.00 50 1016.9
20260901172524 95 138 4.0 13.0 0.00 0.00 0.00 48 1017.0
20260901172025 94 165 5.0 13.0 0.00 0.00 0.00 49 1017.2
20260901171559 94 144 4.0 11.0 0.00 0.00 0.00 51 1017.2
20260901171022 94 140 2.0 10.0 0.00 0.00 0.00 51 1017.3
20260901170523 93 135 5.0 10.0 0.00 0.00 0.00 53 1017.4
20260901170052 94 153 3.0 10.0 0.00 0.00 0.00 53 1017.4
20260901165522 95 119 4.0 9.0 0.00 0.00 0.00 49 1017.4
20260901165023 94 141 1.0 9.0 0.00 0.00 0.00 51 1017.5
20260901164542 94 0 1.0 9.0 0.00 0.00 0.00 51 1017.5
20260901164025 94 121 2.0 7.0 0.00 0.00 0.00 53 1017.7
20260901163524 93 205 2.0 5.0 0.00 0.00 0.00 52 1017.6
20260901163045 93 210 1.0 7.0 0.00 0.00 0.00 53 1017.7
20260901162524 93 203 2.0 7.0 0.00 0.00 0.00 54 1017.6
20260901162027 93 138 3.0 8.0 0.00 0.00 0.00 53 1017.7
20260901161551 93 196 2.0 8.0 0.00 0.00 0.00 53 1017.8
20260901161023 92 176 1.0 7.0 0.00 0.00 0.00 54 1017.7
20260901160525 92 165 2.0 7.0 0.00 0.00 0.00 56 1017.8
20260901155521 91 195 2.0 11.0 0.00 0.00 0.00 57 1017.7
20260901155024 91 186 4.0 11.0 0.00 0.00 0.00 56 1017.7
20260901154541 90 183 3.0 7.0 0.00 0.00 0.00 57 1017.8
20260901154025 90 185 2.0 7.0 0.00 0.00 0.00 59 1017.8
20260901153524 90 192 3.0 7.0 0.00 0.00 0.00 59 1017.8
20260901153052 89 200 1.0 6.0 0.00 0.00 0.00 60 1017.7
20260901152527 89 199 1.0 6.0 0.00 0.00 0.00 61 1017.7
20260901152024 88 200 2.0 6.0 0.00 0.00 0.00 60 1017.7
20260901151548 88 213 1.0 6.0 0.00 0.00 0.00 61 1017.6
20260901151023 88 0 2.0 6.0 0.00 0.00 0.00 61 1017.7
20260901150521 88 200 2.0 5.0 0.00 0.00 0.00 61 1017.7
20260901150050 88 199 1.0 6.0 0.00 0.00 0.00 62 1017.7
20260901145524 87 0 1.0 6.0 0.00 0.00 0.00 63 1017.7
20260901145022 87 0 1.0 6.0 0.00 0.00 0.00 63 1017.7
20260901144552 87 197 1.0 6.0 0.00 0.00 0.00 63 1017.7
20260901144024 87 172 1.0 6.0 0.00 0.00 0.00 63 1017.8
20260901143524 86 187 1.0 5.0 0.00 0.00 0.00 63 1017.9
20260901143048 86 128 1.0 6.0 0.00 0.00 0.00 63 1017.9
20260901142524 86 150 2.0 6.0 0.00 0.00 0.00 64 1018.0
20260901142025 85 190 2.0 5.0 0.00 0.00 0.00 64 1018.0
20260901141541 85 190 2.0 5.0 0.00 0.00 0.00 64 1017.8
20260901141022 85 0 1.0 7.0 0.00 0.00 0.00 65 1017.8
20260901140518 85 164 1.0 7.0 0.00 0.00 0.00 65 1017.8
20260901140118 84 193 1.0 5.0 0.00 0.00 0.00 65 1017.8
20260901135521 84 186 1.0 5.0 0.00 0.00 0.00 65 1017.8
20260901135026 84 157 1.0 3.0 0.00 0.00 0.00 66 1017.7
20260901134550 83 0 0.0 3.0 0.00 0.00 0.00 66 1017.7
20260901134031 83 0 0.0 3.0 0.00 0.00 0.00 66 1017.7
20260901133523 83 0 0.0 3.0 0.00 0.00 0.00 67 1017.7
20260901133048 82 0 1.0 3.0 0.00 0.00 0.00 67 1017.6
20260901132526 82 0 0.0 0.0 0.00 0.00 0.00 68 1017.6
20260901132026 81 0 0.0 0.0 0.00 0.00 0.00 69 1017.6
20260901131543 80 0 0.0 0.0 0.00 0.00 0.00 70 1017.5
20260901131024 80 0 0.0 0.0 0.00 0.00 0.00 71 1017.5
20260901130522 79 0 0.0 0.0 0.00 0.00 0.00 72 1017.4
20260901130044 78 0 0.0 0.0 0.00 0.00 0.00 73 1017.5
20260901125518 78 0 0.0 0.0 0.00 0.00 0.00 74 1017.4
20260901125021 77 0 0.0 3.0 0.00 0.00 0.00 74 1017.4
20260901124542 76 0 0.0 3.0 0.00 0.00 0.00 75 1017.3
20260901124025 76 139 1.0 3.0 0.00 0.00 0.00 76 1017.1
20260901123528 75 0 0.0 0.0 0.00 0.00 0.00 77 1017.0
20260901123047 75 0 0.0 0.0 0.00 0.00 0.00 77 1017.0
20260901122524 75 0 0.0 0.0 0.00 0.00 0.00 76 1016.9
20260901122023 75 0 0.0 0.0 0.00 0.00 0.00 76 1016.8
20260901121541 75 0 0.0 0.0 0.00 0.00 0.00 75 1016.7
20260901121021 75 0 0.0 0.0 0.00 0.00 0.00 74 1016.7
20260901120521 75 0 0.0 0.0 0.00 0.00 0.00 74 1016.6
20260901120040 75 0 0.0 0.0 0.00 0.00 0.00 74 1016.6
20260901115527 76 0 0.0 0.0 0.00 0.00 0.00 73 1016.7
20260901115024 76 0 0.0 0.0 0.00 0.00 0.00 73 1016.7
20260901114550 76 0 0.0 0.0 0.00 0.00 0.00 74 1016.6
20260901114024 76 0 0.0 0.0 0.00 0.00 0.00 73 1016.6
20260901113528 76 0 0.0 0.0 0.00 0.00 0.00 73 1016.6
20260901113045 77 0 0.0 1.0 0.00 0.00 0.00 72 1016.6
20260901112523 77 0 0.0 1.0 0.00 0.00 0.00 72 1016.5
20260901112022 77 0 0.0 0.0 0.00 0.00 0.00 71 1016.5
20260901111543 77 0 0.0 1.0 0.00 0.00 0.00 70 1016.4
20260901111018 77 0 0.0 1.0 0.00 0.00 0.00 70 1016.4
20260901110521 78 0 0.0 0.0 0.00 0.00 0.00 69 1016.4
20260901110041 78 0 0.0 0.0 0.00 0.00 0.00 70 1016.5
20260901105525 78 0 0.0 1.0 0.00 0.00 0.00 70 1016.5
20260901105025 78 0 0.0 1.0 0.00 0.00 0.00 69 1016.5
20260901104546 78 0 0.0 1.0 0.00 0.00 0.00 69 1016.4
20260901104024 79 0 0.0 1.0 0.00 0.00 0.00 68 1016.4
20260901103525 79 0 0.0 1.0 0.00 0.00 0.00 68 1016.3
20260901103042 80 0 0.0 3.0 0.00 0.00 0.00 67 1016.3
20260901102523 80 0 0.0 3.0 0.00 0.00 0.00 67 1016.4
20260901102021 81 197 2.0 4.0 0.00 0.00 0.00 66 1016.4
20260901101559 81 196 2.0 4.0 0.00 0.00 0.00 66 1016.4
20260901101018 81 195 1.0 4.0 0.00 0.00 0.00 65 1016.4
20260901100520 81 202 1.0 3.0 0.00 0.00 0.00 65 1016.5
20260901100049 81 201 1.0 4.0 0.00 0.00 0.00 65 1016.5
20260901095521 81 0 0.0 4.0 0.00 0.00 0.00 65 1016.4
20260901095025 81 0 0.0 0.0 0.00 0.00 0.00 65 1016.4
20260901094545 81 0 0.0 0.0 0.00 0.00 0.00 64 1016.5
20260901094024 81 0 0.0 1.0 0.00 0.00 0.00 64 1016.5
20260901093523 81 0 0.0 4.0 0.00 0.00 0.00 64 1016.5
20260901093048 82 0 0.0 6.0 0.00 0.00 0.00 64 1016.5
20260901092522 82 163 0.0 6.0 0.00 0.00 0.00 63 1016.6
20260901092023 82 162 0.0 6.0 0.00 0.00 0.00 63 1016.6
20260901091553 82 166 1.0 8.0 0.00 0.00 0.00 62 1016.5
20260901091020 82 136 2.0 8.0 0.00 0.00 0.00 62 1016.5
20260901090522 82 146 3.0 8.0 0.00 0.00 0.00 62 1016.5
20260901090040 82 142 4.0 10.0 0.00 0.00 0.00 61 1016.5
20260901085525 82 178 3.0 10.0 0.00 0.00 0.00 61 1016.4
20260901085026 82 136 5.0 10.0 0.00 0.00 0.00 60 1016.5
20260901084542 83 128 4.0 9.0 0.00 0.00 0.00 60 1016.4
20260901084025 83 140 4.0 10.0 0.00 0.00 0.00 59 1016.5
20260901083526 83 142 5.0 10.0 0.00 0.00 0.00 59 1016.4
20260901083044 83 137 5.0 10.0 0.00 0.00 0.00 59 1016.4
20260901082522 83 117 6.0 10.0 0.00 0.00 0.00 58 1016.3
20260901082023 83 143 6.0 10.0 0.00 0.00 0.00 58 1016.3
20260901081555 82 121 3.0 7.0 0.00 0.00 0.00 58 1016.2
20260901081025 82 121 3.0 6.0 0.00 0.00 0.00 58 1016.1
20260901080524 82 136 3.0 6.0 0.00 0.00 0.00 58 1016.0
20260901080136 82 119 2.0 4.0 0.00 0.00 0.00 58 1016.0
20260901075525 81 112 1.0 4.0 0.00 0.00 0.00 57 1016.0
20260901075026 81 94 1.0 4.0 0.00 0.00 0.00 57 1016.0
20260901074541 81 90 1.0 4.0 0.00 0.00 0.00 57 1016.0
20260901074022 81 88 1.0 4.0 0.00 0.00 0.00 57 1016.0
20260901073525 81 86 1.0 4.0 0.00 0.00 0.00 57 1016.0
20260901073043 81 86 1.0 4.0 0.00 0.00 0.00 57 1015.9
20260901072524 81 75 1.0 4.0 0.00 0.00 0.00 57 1016.0
20260901072022 81 0 0.0 0.0 0.00 0.00 0.00 57 1016.0
20260901071542 81 0 0.0 2.0 0.00 0.00 0.00 56 1016.0
20260901071026 81 0 0.0 2.0 0.00 0.00 0.00 56 1016.0
20260901070520 80 0 1.0 3.0 0.00 0.00 0.00 56 1016.0
20260901070041 80 0 0.0 4.0 0.00 0.00 0.00 57 1016.0
20260901065529 80 69 1.0 4.0 0.00 0.00 0.00 57 1015.9
20260901065024 80 0 0.0 2.0 0.00 0.00 0.00 58 1016.0
20260901064541 80 0 0.0 2.0 0.00 0.00 0.00 56 1015.9
20260901064023 81 66 0.0 5.0 0.00 0.00 0.00 56 1015.9
20260901063523 81 0 0.0 6.0 0.00 0.00 0.00 56 1015.9
20260901063055 81 66 3.0 9.0 0.00 0.00 0.00 57 1015.9
20260901062522 80 70 4.0 9.0 0.00 0.00 0.00 57 1016.0
20260901062021 81 0 0.0 0.0 0.00 0.00 0.00 56 1015.7
20260901061558 81 0 0.0 1.0 0.00 0.00 0.00 55 1015.8
20260901061019 82 0 0.0 1.0 0.00 0.00 0.00 55 1015.6
20260901060520 83 0 0.0 0.0 0.00 0.00 0.00 53 1015.6
20260901060042 83 0 0.0 0.0 0.00 0.00 0.00 53 1015.6
20260901055525 84 0 0.0 1.0 0.00 0.00 0.00 52 1015.6
20260901055024 84 0 0.0 1.0 0.00 0.00 0.00 51 1015.5
20260901054551 84 0 0.0 3.0 0.00 0.00 0.00 52 1015.5
20260901054023 85 0 0.0 4.0 0.00 0.00 0.00 51 1015.5
20260901053519 85 137 1.0 4.0 0.00 0.00 0.00 51 1015.4
20260901053042 85 136 2.0 4.0 0.00 0.00 0.00 51 1015.3
20260901052517 84 130 2.0 4.0 0.00 0.00 0.00 51 1015.3
20260901052025 84 124 2.0 4.0 0.00 0.00 0.00 52 1015.2
20260901051541 83 124 2.0 4.0 0.00 0.00 0.00 53 1015.2
20260901051027 83 124 1.0 3.0 0.00 0.00 0.00 53 1015.2
20260901050524 83 0 1.0 3.0 0.00 0.00 0.00 53 1015.2
20260901050046 83 124 0.0 2.0 0.00 0.00 0.00 53 1015.1
20260901045525 84 124 0.0 2.0 0.00 0.00 0.00 52 1015.1
20260901045020 84 0 0.0 3.0 0.00 0.00 0.00 52 1015.1
20260901044558 84 124 1.0 3.0 0.00 0.00 0.00 51 1015.1
20260901044020 84 124 1.0 3.0 0.00 0.00 0.00 51 1015.1
20260901043523 84 124 1.0 3.0 0.00 0.00 0.00 51 1015.0
20260901043043 85 126 1.0 4.0 0.00 0.00 0.00 51 1015.0
20260901042518 85 125 1.0 4.0 0.00 0.00 0.00 50 1014.9
20260901042018 85 126 1.0 3.0 0.00 0.00 0.00 50 1015.0
20260901041541 85 0 1.0 3.0 0.00 0.00 0.00 50 1015.1
20260901041022 86 126 1.0 4.0 0.00 0.00 0.00 49 1015.0
20260901040524 86 128 1.0 4.0 0.00 0.00 0.00 49 1015.0
20260901040057 86 128 1.0 5.0 0.00 0.00 0.00 49 1015.0
20260901035523 86 127 2.0 5.0 0.00 0.00 0.00 49 1015.1
20260901035022 86 130 2.0 5.0 0.00 0.00 0.00 49 1015.1
20260901034542 86 131 1.0 5.0 0.00 0.00 0.00 49 1015.2
20260901034022 86 124 2.0 6.0 0.00 0.00 0.00 49 1015.1
20260901033521 86 123 2.0 6.0 0.00 0.00 0.00 49 1015.0
20260901033041 86 126 2.0 3.0 0.00 0.00 0.00 49 1014.9
20260901032518 87 126 1.0 3.0 0.00 0.00 0.00 48 1015.1
20260901032018 87 0 0.0 4.0 0.00 0.00 0.00 48 1015.0
20260901031541 88 126 2.0 4.0 0.00 0.00 0.00 47 1014.9
20260901031020 88 125 2.0 4.0 0.00 0.00 0.00 47 1014.8
20260901030524 88 127 2.0 4.0 0.00 0.00 0.00 47 1014.8
20260901030046 87 133 2.0 4.0 0.00 0.00 0.00 47 1014.8
20260901025524 87 132 2.0 4.0 0.00 0.00 0.00 47 1014.8
20260901025023 87 130 1.0 4.0 0.00 0.00 0.00 47 1014.7
20260901024549 88 130 1.0 3.0 0.00 0.00 0.00 46 1014.7
20260901024023 88 130 1.0 4.0 0.00 0.00 0.00 46 1014.6
20260901023521 88 133 1.0 4.0 0.00 0.00 0.00 45 1014.4
20260901023048 89 134 1.0 5.0 0.00 0.00 0.00 45 1014.4
20260901022519 89 133 2.0 5.0 0.00 0.00 0.00 44 1014.4
20260901022018 89 133 2.0 5.0 0.00 0.00 0.00 44 1014.4
20260901021602 89 133 2.0 5.0 0.00 0.00 0.00 44 1014.3
20260901021020 90 132 3.0 5.0 0.00 0.00 0.00 44 1014.2
20260901020521 89 127 2.0 4.0 0.00 0.00 0.00 44 1014.2
20260901020040 89 126 2.0 4.0 0.00 0.00 0.00 44 1014.1
20260901015523 89 130 2.0 4.0 0.00 0.00 0.00 43 1014.1
20260901015024 90 133 2.0 4.0 0.00 0.00 0.00 43 1014.0
20260901014543 90 138 1.0 4.0 0.00 0.00 0.00 43 1014.0
20260901014021 90 137 2.0 4.0 0.00 0.00 0.00 42 1014.0
20260901013519 91 137 1.0 5.0 0.00 0.00 0.00 42 1014.0
20260901013041 91 137 2.0 5.0 0.00 0.00 0.00 42 1014.0
20260901012521 91 137 2.0 5.0 0.00 0.00 0.00 41 1013.9
20260901012026 92 131 2.0 5.0 0.00 0.00 0.00 41 1013.7
20260901011541 92 136 3.0 7.0 0.00 0.00 0.00 40 1013.8
20260901011022 92 125 3.0 7.0 0.00 0.00 0.00 40 1013.8
20260901010520 93 138 3.0 7.0 0.00 0.00 0.00 40 1013.8
20260901010042 93 136 3.0 9.0 0.00 0.00 0.00 39 1013.7
20260901005520 94 140 4.0 9.0 0.00 0.00 0.00 39 1013.7
20260901005026 94 129 4.0 10.0 0.00 0.00 0.00 39 1013.7
20260901004545 94 142 5.0 12.0 0.00 0.00 0.00 39 1013.7
20260901004022 94 138 7.0 12.0 0.00 0.00 0.00 38 1013.7
20260901003521 95 137 5.0 12.0 0.00 0.00 0.00 39 1013.7
20260901003044 95 165 7.0 12.0 0.00 0.00 0.00 38 1013.7
20260901002520 95 137 6.0 11.0 0.00 0.00 0.00 38 1013.7
20260901002022 95 132 4.0 12.0 0.00 0.00 0.00 38 1013.7
20260901001541 95 124 5.0 12.0 0.00 0.00 0.00 37 1013.7
20260901001022 96 114 8.0 12.0 0.00 0.00 0.00 37 1013.7
20260901000520 96 139 6.0 11.0 0.00 0.00 0.00 38 1013.7
20260901000041 96 157 6.0 11.0 0.00 0.00 0.00 37 1013.7
20260831235524 96 172 6.0 11.0 0.00 0.00 0.00 37 1013.7
20260831235024 96 153 4.0 12.0 0.00 0.00 0.00 38 1013.6
20260831234542 96 122 6.0 12.0 0.00 0.00 0.00 37 1013.7